Location: Nirvana
(45.0297°N, 77.2628°W)
Time: 21:48:52
(UTC-05:00)

Envisat - Pass Details

Date: 26 October 2019
Orbit: 764 x 766 km, 98.1° (Epoch: 18 November)

Event Time Altitude Azimuth Distance (km) Brightness Sun altitude
Rises 06:51:25 0° 29° (NNE) 3,240 6.5 -9.0°
Reaches altitude 10° 06:54:32 10° 49° (NE) 2,308 6.1 -8.5°
Maximum altitude 06:57:51 17° 90° (E) 1,848 6.3 -7.9°
Drops below altitude 10° 07:01:09 10° 131° (SE) 2,296 6.5 -7.3°
Sets 07:04:13 0° 151° (SSE) 3,216 6.9 -6.8°
